Regional Weather Roundup
Issued by NWS Cleveland, OH

Home | Current Version | Previous Version | Text Only | Print | Product List | Glossary Off
Versions: 1 2 3 4 5 6 7 8 9 10 11 12 13 14 15 16 17 18 19 20 21 22 23 24 25 26 27 28 29 30 31 32 33 34 35 36 37 38 39 40 41 42 43 44 45 46 47 48 49 50

000
ASUS41 KCLE 312000
RWRCLE
OHIO REGIONAL WEATHER ROUNDUP
NATIONAL WEATHER SERVICE WILMINGTON, OH
300 PM EST SAT JAN 31 2015

NOTE: "FAIR" INDICATES FEW OR NO CLOUDS BELOW 12,000 FEET WITH NO
SIGNIFICANT WEATHER AND/OR OBSTRUCTIONS TO VISIBILITY.

OHZ001>008-015>018-024>027-034-035-043-044-312100-
   NORTHWEST OHIO

CITY           SKY/WX    TMP DP  RH WIND       PRES   REMARKS
DEFIANCE       SUNNY     36  23  59 SW12      30.20F
FINDLAY        SUNNY     33  22  63 SW14      30.21F WCI  23
TOLEDO EXPRESS SUNNY     34  22  61 SW10      30.19F WCI  26
TOLEDO EXEC    SUNNY     33  22  63 SW16      30.22F WCI  23
LIMA           MOSUNNY   35  23  61 SW15      30.21F WCI  25
$$

OHZ009>014-019>023-028>033-038-089-312100-
   NORTHEAST OHIO

CITY           SKY/WX    TMP DP  RH WIND       PRES   REMARKS
CLE-HOPKINS    MOSUNNY   30  18  60 SW12      30.25F WCI  20
CLE-LAKEFRONT  SUNNY     31  18  58 SW12G20   30.23F WCI  22
CUY CO. ARPT   MOSUNNY   30  19  64 W14       30.23F WCI  20
LORAIN-ELYRIA  SUNNY     29  18  63 SW15      30.23F WCI  18
ASHTABULA      CLOUDY    25  15  66 S7        30.23F WCI  17
AKRON-CANTON   MOSUNNY   26  15  63 SW10G21   30.24S WCI  16
WOOSTER        NOT AVBL
MANSFIELD      SUNNY     29  18  63 SW14      30.22F WCI  18
YOUNGSTOWN     MOSUNNY   26  15  63 SW12      30.22F WCI  16
$$

OHZ042-051>053-060>062-070>072-077>081-312100-
  SOUTHWEST OHIO

CITY           SKY/WX    TMP DP  RH WIND       PRES   REMARKS
CINC-COVINGTON CLOUDY    38  19  46 W8        30.29S
CINC-LUNKEN    CLOUDY    38  19  46 W9        30.32F
HAMILTON       CLOUDY    38  20  48 SW8       30.30F
DAYTON         NOT AVBL
WRIGHT-PAT AFB NOT AVBL
DAYTON GENERAL CLOUDY    36  21  54 SW10      30.26F
WILMINGTON     PTSUNNY   35  19  52 W12       30.26F WCI  27
$$

OHZ036-037-039>041-045>050-054>059-063>069-073>076-082>088-312100-
  CENTRAL AND SOUTHEAST OHIO

CITY           SKY/WX    TMP DP  RH WIND       PRES   REMARKS
COLUMBUS       CLOUDY    33  21  61 SW12      30.27F WCI  24
OSU AIRPORT    MOSUNNY   33  20  58 SW10      30.26F WCI  25
BOLTON FIELD   SUNNY     34  23  64 SW13      30.27F WCI  25
RICKENBACK AFB NOT AVBL
NEWARK         MOSUNNY   31  19  61 SW10      30.27F WCI  22
MARION         SUNNY     31  20  63 SW13      30.24F WCI  21
LANCASTER      SUNNY     34  22  61 SW10      30.28F WCI  26
ZANESVILLE     SUNNY     31  16  54 SW7       30.27F WCI  24
NEW PHILLY     SUNNY     30  16  56 VRB6      30.28F WCI  24
$$



USA.gov is the U.S. government's official web portal to all federal, state and local government web resources and services.